Riverside, CA

5:04 AM PDT on April 30, 2017 (GMT -0700)
Riverside Municipal

Weather History for KRAL - December, 2011

Change the Weather History Date:

Monday, December 19, 2011

  Actual Average Record
Temperature  
Mean Temperature 54 °F 54 °F  
Max Temperature 59 °F 66 °F 90 °F (1917)
Min Temperature 48 °F 42 °F 26 °F (1909)
Degree Days  
Heating Degree Days 11 11  
Month to date heating degree days 235 195  
Since 1 July heating degree days 458 395  
Cooling Degree Days 0 0  
Month to date cooling degree days 0 0  
Year to date cooling degree days 1718 1754  
Growing Degree Days 2 (Base 50)    
Moisture  
Dew Point 43 °F    
Average Humidity 69    
Maximum Humidity 86    
Minimum Humidity 51    
Precipitation  
Precipitation 0.00 in 0.04 in 1.43 in (1894)
Month to date precipitation 0.49 0.72  
Year to date precipitation 6.88 11.59  
Since 1 July precipitation 2.68  
Snow  
Snow 0.00 in - - ()
Month to date snowfall 0.0  
Year to date snowfall 0.0  
Snow Depth 0.00 in    
Sea Level Pressure  
Sea Level Pressure 30.03 in    
Wind  
Wind Speed 2 mph (East)    
Max Wind Speed 8 mph    
Max Gust Speed 9 mph    
Visibility 10 miles    
Events      
T = Trace of Precipitation, MM = Missing Value Source: NWS Daily Summary

Daily Weather History Graph

Daily Weather History Graph

Search for Another Location

Airport or City:

Trip Planner

Search our weather history database for the weather conditions in past years. The results will help you decide how hot, cold, wet, or windy it might be!

Date:

Astronomy

Dec. 19, 2011 Rise Set
Actual Time 6:49 AM PST 4:43 PM PST
Civil Twilight 6:22 AM PST 5:11 PM PST
Nautical Twilight 5:50 AM PST 5:42 PM PST
Astronomical Twilight 5:20 AM PST 6:13 PM PST
Moon 1:15 AM PST (12/19) 12:36 PM PST (12/19)
Length of Visible Light 10h 49m
Length of Day
9h 53m
Waning Crescent, 30% of the Moon is Illuminated
Dec 19
Waning Crescent
Dec 24
New
Dec 31
First Quarter
Jan 8
Full
Jan 16
Last Quarter

Hourly Weather History & Observations

Time (PST) Temp. Dew Point Humidity Pressure Visibility Wind Dir Wind Speed Gust Speed Precip Events Conditions
12:53 AM 48.9 °F 41.0 °F 74% 30.04 in 10.0 mi NE 3.5 mph - N/A   Overcast
1:53 AM 48.0 °F 42.1 °F 80% 30.04 in 10.0 mi Calm Calm - N/A   Overcast
2:53 AM 48.9 °F 42.1 °F 77% 30.04 in 10.0 mi Calm Calm - N/A   Overcast
3:53 AM 48.9 °F 43.0 °F 80% 30.02 in 9.0 mi NNE 3.5 mph - N/A   Overcast
4:53 AM 48.9 °F 43.0 °F 80% 30.03 in 10.0 mi NNE 4.6 mph - N/A   Overcast
5:53 AM 48.9 °F 44.1 °F 83% 30.04 in 10.0 mi Calm Calm - N/A   Overcast
6:53 AM 48.9 °F 44.1 °F 83% 30.06 in 9.0 mi Calm Calm - N/A   Overcast
7:53 AM 50.0 °F 45.0 °F 83% 30.07 in 8.0 mi Calm Calm - N/A   Overcast
8:00 AM 51.8 °F 44.6 °F 76% 30.09 in 8.0 mi Calm Calm - N/A   Overcast
8:15 AM 51.8 °F 44.6 °F 76% 30.09 in 8.0 mi Calm Calm - N/A   Overcast
8:53 AM 52.0 °F 45.0 °F 77% 30.08 in 10.0 mi Calm Calm - N/A   Overcast
9:19 AM 51.8 °F 44.6 °F 76% 30.10 in 10.0 mi Calm Calm - N/A   Overcast
9:53 AM 53.1 °F 45.0 °F 74% 30.08 in 10.0 mi Calm Calm - N/A   Overcast
10:53 AM 55.0 °F 45.0 °F 69% 30.06 in 10.0 mi ENE 3.5 mph - N/A   Overcast
11:37 AM 55.4 °F 44.6 °F 67% 30.07 in 10.0 mi Calm Calm - N/A   Overcast
12:13 PM 55.4 °F 44.6 °F 67% 30.05 in 10.0 mi Calm Calm - N/A   Overcast
12:53 PM 57.0 °F 44.1 °F 62% 30.01 in 10.0 mi Calm Calm - N/A   Overcast
1:53 PM 57.0 °F 41.0 °F 55% 29.98 in 10.0 mi ESE 3.5 mph - N/A   Overcast
2:53 PM 57.9 °F 39.0 °F 49% 29.98 in 10.0 mi SE 6.9 mph - N/A   Mostly Cloudy
3:53 PM 55.9 °F 39.9 °F 55% 29.98 in 10.0 mi ESE 4.6 mph - N/A   Mostly Cloudy
4:53 PM 55.0 °F 39.0 °F 55% 29.99 in 10.0 mi ESE 4.6 mph - 0.00 in   Mostly Cloudy
5:53 PM 55.0 °F 39.9 °F 57% 29.99 in 10.0 mi Calm Calm - N/A   Scattered Clouds
6:53 PM 53.1 °F 41.0 °F 64% 30.01 in 10.0 mi Calm Calm - N/A   Overcast
7:53 PM 52.0 °F 41.0 °F 66% 30.01 in 10.0 mi Calm Calm - N/A   Clear
8:53 PM 51.1 °F 41.0 °F 68% 30.01 in 10.0 mi Calm Calm - N/A   Clear
9:53 PM 50.0 °F 41.0 °F 71% 30.02 in 10.0 mi Calm Calm - N/A   Clear
10:53 PM 50.0 °F 42.1 °F 74% 30.01 in 10.0 mi Calm Calm - N/A   Overcast
11:53 PM 48.9 °F 42.1 °F 77% 30.01 in 10.0 mi Calm Calm - N/A   Scattered Clouds